Location: Campbell Lake
(32.1204°N, 97.6289°W)
Time: 07:52:44
(UTC+00:00)

ARIANE 6 FM1 Upper Stage - Pass Details

Date: 09 December 2025
Orbit: 522 x 610 km, 62.0° (Epoch: 14 January)

Event Time Altitude Azimuth Distance (km) Brightness Sun altitude
Rises 00:36:09 0° 303° (WNW) 2,678 6.7 -14.6°
Reaches altitude 10° 00:39:25 10° 275° (W) 1,800 6.3 -15.2°
Maximum altitude 00:41:14 13° 248° (WSW) 1,635 6.3 -15.6°
Drops below altitude 10° 00:43:05 10° 221° (SW) 1,817 6.1 -16.0°
Sets 00:46:25 0° 192° (SSW) 2,729 6.6 -16.7°
